[Date Prev][Date Next][Thread Prev][Thread Next] - [Date Index][Thread Index][Author Index]

2 Line ISS Keps 1-12



ISS
1 25544U 98067A   04043.16944444  .00012489  00000-0  12000-3 0  1731
2 25544  51.6278 247.3041 0007328 154.0212 357.9713 15.66996535298545

----
Via the sarex mailing list at AMSAT.ORG courtesy of AMSAT-NA.
To unsubscribe, send "unsubscribe sarex" to Majordomo@amsat.org



AMSAT Top AMSAT Home